Time,TemperatureF,DewpointF,PressureIn,WindDirection,WindDirectionDegrees,WindSpeedMPH,WindSpeedGustMPH,Humidity,HourlyPrecipIn,Conditions,Clouds,dailyrainin,SolarRadiationWatts/m^2,SoftwareType,DateUTC
2013-10-07 00:03:00,40.0,24.0,-100.00,North,357,1.0,5.0,52,0.00,,,0.00,0.000000,,2013-10-07 06:03:00,
2013-10-07 00:12:00,40.0,24.0,-100.00,North,357,1.0,5.0,52,0.00,,,0.00,0.000000,,2013-10-07 06:12:00,
2013-10-07 00:42:00,38.0,26.0,-100.00,NNE,26,1.0,3.0,61,0.00,,,0.00,0.000000,,2013-10-07 06:42:00,
2013-10-07 00:52:00,38.0,26.0,-100.00,NNE,26,1.0,3.0,61,0.00,,,0.00,0.000000,,2013-10-07 06:52:00,
2013-10-07 01:01:00,38.0,26.0,-100.00,NNE,26,1.0,3.0,61,0.00,,,0.00,0.000000,,2013-10-07 07:01:00,
2013-10-07 01:12:00,38.0,26.0,-100.00,NNE,26,1.0,3.0,61,0.00,,,0.00,0.000000,,2013-10-07 07:12:00,
2013-10-07 01:42:00,35.0,21.0,-100.00,NNW,331,2.0,6.0,57,0.00,,,0.00,0.000000,,2013-10-07 07:42:00,
2013-10-07 01:52:00,35.0,21.0,-100.00,NNW,331,2.0,6.0,57,0.00,,,0.00,0.000000,,2013-10-07 07:52:00,
2013-10-07 02:03:00,35.0,21.0,-100.00,NNW,331,2.0,6.0,57,0.00,,,0.00,0.000000,,2013-10-07 08:03:00,
2013-10-07 02:11:00,35.0,21.0,-100.00,NNW,331,2.0,6.0,57,0.00,,,0.00,0.000000,,2013-10-07 08:11:00,
2013-10-07 02:42:00,34.0,24.0,-100.00,SE,128,3.0,4.0,67,0.00,,,0.00,0.000000,,2013-10-07 08:42:00,
2013-10-07 02:52:00,34.0,24.0,-100.00,SE,128,3.0,4.0,67,0.00,,,0.00,0.000000,,2013-10-07 08:52:00,
2013-10-07 03:02:00,34.0,24.0,-100.00,SE,128,3.0,4.0,67,0.00,,,0.00,0.000000,,2013-10-07 09:02:00,
2013-10-07 03:11:00,34.0,24.0,-100.00,SE,128,3.0,4.0,67,0.00,,,0.00,0.000000,,2013-10-07 09:11:00,
2013-10-07 03:43:00,33.0,22.0,-100.00,ENE,62,2.0,5.0,64,0.00,,,-99.99,0.000000,,2013-10-07 09:43:00,
2013-10-07 03:54:00,33.0,22.0,-100.00,ENE,62,2.0,5.0,64,0.00,,,-99.99,0.000000,,2013-10-07 09:54:00,
2013-10-07 04:03:00,33.0,22.0,-100.00,ENE,62,2.0,5.0,64,0.00,,,-99.99,0.000000,,2013-10-07 10:03:00,
2013-10-07 04:13:00,33.0,22.0,-100.00,ENE,62,2.0,5.0,64,0.00,,,-99.99,0.000000,,2013-10-07 10:13:00,
2013-10-07 04:43:00,33.0,25.0,-100.00,NNE,28,1.0,6.0,72,0.00,,,0.00,0.000000,,2013-10-07 10:43:00,
2013-10-07 04:53:00,33.0,25.0,-100.00,NNE,28,1.0,6.0,72,0.00,,,0.00,0.000000,,2013-10-07 10:53:00,
2013-10-07 05:02:00,33.0,25.0,-100.00,NNE,28,1.0,6.0,72,0.00,,,0.00,0.000000,,2013-10-07 11:02:00,
2013-10-07 05:12:00,33.0,25.0,-100.00,NNE,28,1.0,6.0,72,0.00,,,0.00,0.000000,,2013-10-07 11:12:00,
2013-10-07 05:42:00,32.0,24.0,-100.00,NNE,20,1.0,4.0,72,0.00,,,0.00,0.000000,,2013-10-07 11:42:00,
2013-10-07 05:52:00,32.0,24.0,-100.00,NNE,20,1.0,4.0,72,0.00,,,0.00,0.000000,,2013-10-07 11:52:00,
2013-10-07 06:02:00,32.0,24.0,-100.00,NNE,20,1.0,4.0,72,0.00,,,0.00,0.000000,,2013-10-07 12:02:00,
2013-10-07 06:12:00,32.0,24.0,-100.00,NNE,20,1.0,4.0,72,0.00,,,0.00,0.000000,,2013-10-07 12:12:00,
2013-10-07 06:43:00,31.0,22.0,-100.00,NNE,20,2.0,4.0,68,0.00,,,0.00,0.000000,,2013-10-07 12:43:00,
2013-10-07 06:52:00,31.0,22.0,-100.00,NNE,20,2.0,4.0,68,0.00,,,0.00,0.000000,,2013-10-07 12:52:00,
2013-10-07 07:01:00,31.0,22.0,-100.00,NNE,20,2.0,4.0,68,0.00,,,0.00,0.000000,,2013-10-07 13:01:00,
2013-10-07 07:11:00,31.0,22.0,-100.00,NNE,20,2.0,4.0,68,0.00,,,0.00,0.000000,,2013-10-07 13:11:00,
2013-10-07 07:42:00,32.0,26.0,-100.00,East,100,2.0,5.0,77,0.00,,,-99.99,0.000000,,2013-10-07 13:42:00,
2013-10-07 07:52:00,32.0,26.0,-100.00,East,100,2.0,5.0,77,0.00,,,-99.99,0.000000,,2013-10-07 13:52:00,
2013-10-07 08:01:00,32.0,26.0,-100.00,East,100,2.0,5.0,77,0.00,,,-99.99,0.000000,,2013-10-07 14:01:00,
2013-10-07 08:11:00,32.0,26.0,-100.00,East,100,2.0,5.0,77,0.00,,,-99.99,0.000000,,2013-10-07 14:11:00,
2013-10-07 08:43:00,30.0,23.0,-100.00,North,11,2.0,5.0,76,0.00,,,0.00,4.000000,,2013-10-07 14:43:00,
2013-10-07 08:52:00,30.0,23.0,-100.00,North,11,2.0,5.0,76,0.00,,,0.00,4.000000,,2013-10-07 14:52:00,
2013-10-07 09:01:00,30.0,23.0,-100.00,North,11,2.0,5.0,76,0.00,,,0.00,4.000000,,2013-10-07 15:01:00,
2013-10-07 09:11:00,30.0,23.0,-100.00,North,11,2.0,5.0,76,0.00,,,0.00,4.000000,,2013-10-07 15:11:00,
2013-10-07 09:53:00,37.0,29.0,-100.00,NE,39,1.0,4.0,72,0.00,,,0.00,94.000000,,2013-10-07 15:53:00,
2013-10-07 10:03:00,37.0,29.0,-100.00,NE,39,1.0,4.0,72,0.00,,,0.00,94.000000,,2013-10-07 16:03:00,
2013-10-07 10:12:00,37.0,29.0,-100.00,NE,39,1.0,4.0,72,0.00,,,0.00,94.000000,,2013-10-07 16:12:00,
2013-10-07 10:43:00,45.0,35.0,-100.00,WSW,255,2.0,4.0,67,0.00,,,0.00,385.000000,,2013-10-07 16:43:00,
2013-10-07 10:53:00,45.0,35.0,-100.00,WSW,255,2.0,4.0,67,0.00,,,0.00,385.000000,,2013-10-07 16:53:00,
2013-10-07 11:02:00,45.0,35.0,-100.00,WSW,255,2.0,4.0,67,0.00,,,0.00,385.000000,,2013-10-07 17:02:00,
2013-10-07 11:12:00,45.0,35.0,-100.00,WSW,255,2.0,4.0,67,0.00,,,0.00,385.000000,,2013-10-07 17:12:00,
2013-10-07 11:52:00,54.0,37.0,-100.00,NW,326,3.0,6.0,53,0.00,,,0.00,557.000000,,2013-10-07 17:52:00,
2013-10-07 12:02:00,54.0,37.0,-100.00,NW,326,3.0,6.0,53,0.00,,,0.00,557.000000,,2013-10-07 18:02:00,
2013-10-07 13:52:00,66.0,24.0,-100.00,SW,224,15.0,20.0,20,-99.99,,,0.00,744.000000,,2013-10-07 19:52:00,
2013-10-07 14:02:00,66.0,24.0,-100.00,SW,224,15.0,20.0,20,-99.99,,,0.00,744.000000,,2013-10-07 20:02:00,
2013-10-07 14:43:00,63.0,25.0,-100.00,WSW,256,11.0,25.0,23,0.00,,,0.00,618.000000,,2013-10-07 20:43:00,
2013-10-07 14:52:00,63.0,25.0,-100.00,WSW,256,11.0,25.0,23,0.00,,,0.00,618.000000,,2013-10-07 20:52:00,
2013-10-07 15:02:00,63.0,25.0,-100.00,WSW,256,11.0,25.0,23,0.00,,,0.00,618.000000,,2013-10-07 21:02:00,
2013-10-07 15:12:00,63.0,25.0,-100.00,WSW,256,11.0,25.0,23,0.00,,,0.00,618.000000,,2013-10-07 21:12:00,
2013-10-07 15:43:00,65.0,26.0,-100.00,WSW,246,13.0,22.0,23,0.00,,,0.00,600.000000,,2013-10-07 21:43:00,
2013-10-07 15:55:00,65.0,26.0,-100.00,WSW,246,13.0,22.0,23,0.00,,,0.00,600.000000,,2013-10-07 21:55:00,
2013-10-07 16:04:00,65.0,26.0,-100.00,WSW,246,13.0,22.0,23,0.00,,,0.00,600.000000,,2013-10-07 22:04:00,
2013-10-07 16:13:00,65.0,26.0,-100.00,WSW,246,13.0,22.0,23,0.00,,,0.00,600.000000,,2013-10-07 22:13:00,
2013-10-07 16:43:00,63.0,26.0,-100.00,West,265,9.0,23.0,24,0.00,,,0.00,445.000000,,2013-10-07 22:43:00,
2013-10-07 16:53:00,63.0,26.0,-100.00,West,265,9.0,23.0,24,0.00,,,0.00,445.000000,,2013-10-07 22:53:00,
2013-10-07 17:02:00,63.0,26.0,-100.00,West,265,9.0,23.0,24,0.00,,,0.00,445.000000,,2013-10-07 23:02:00,
2013-10-07 17:12:00,63.0,26.0,-100.00,West,265,9.0,23.0,24,0.00,,,0.00,445.000000,,2013-10-07 23:12:00,
2013-10-07 17:42:00,59.0,25.0,-100.00,West,272,9.0,17.0,27,0.00,,,0.00,201.000000,,2013-10-07 23:42:00,
2013-10-07 17:52:00,59.0,25.0,-100.00,West,272,9.0,17.0,27,0.00,,,0.00,201.000000,,2013-10-07 23:52:00,
2013-10-07 18:02:00,59.0,25.0,-100.00,West,272,9.0,17.0,27,0.00,,,0.00,201.000000,,2013-10-08 00:02:00,
2013-10-07 18:11:00,59.0,25.0,-100.00,West,272,9.0,17.0,27,0.00,,,0.00,201.000000,,2013-10-08 00:11:00,
2013-10-07 18:42:00,59.0,29.0,-100.00,West,272,8.0,17.0,32,0.00,,,0.00,136.000000,,2013-10-08 00:42:00,
2013-10-07 18:52:00,59.0,29.0,-100.00,West,272,8.0,17.0,32,0.00,,,0.00,136.000000,,2013-10-08 00:52:00,
2013-10-07 19:02:00,59.0,29.0,-100.00,West,272,8.0,17.0,32,0.00,,,0.00,136.000000,,2013-10-08 01:02:00,
2013-10-07 19:12:00,59.0,29.0,-100.00,West,272,8.0,17.0,32,0.00,,,0.00,136.000000,,2013-10-08 01:12:00,
2013-10-07 19:42:00,52.0,27.0,-100.00,SSW,194,3.0,14.0,37,0.00,,,0.00,25.000000,,2013-10-08 01:42:00,
2013-10-07 19:52:00,52.0,27.0,-100.00,SSW,194,3.0,14.0,37,0.00,,,0.00,25.000000,,2013-10-08 01:52:00,
2013-10-07 20:03:00,52.0,27.0,-100.00,SSW,194,3.0,14.0,37,0.00,,,0.00,25.000000,,2013-10-08 02:03:00,
2013-10-07 20:11:00,52.0,27.0,-100.00,SSW,194,3.0,14.0,37,0.00,,,0.00,25.000000,,2013-10-08 02:11:00,
2013-10-07 20:42:00,50.0,29.0,-100.00,ENE,64,5.0,14.0,45,0.00,,,0.00,0.000000,,2013-10-08 02:42:00,
2013-10-07 20:52:00,50.0,29.0,-100.00,ENE,64,5.0,14.0,45,0.00,,,0.00,0.000000,,2013-10-08 02:52:00,
2013-10-07 21:02:00,50.0,29.0,-100.00,ENE,64,5.0,14.0,45,0.00,,,0.00,0.000000,,2013-10-08 03:02:00,
2013-10-07 21:11:00,50.0,29.0,-100.00,ENE,64,5.0,14.0,45,0.00,,,0.00,0.000000,,2013-10-08 03:11:00,
2013-10-07 21:44:00,49.0,29.0,-100.00,NNE,23,5.0,14.0,46,0.00,,,0.00,0.000000,,2013-10-08 03:44:00,
2013-10-07 21:55:00,49.0,29.0,-100.00,NNE,23,5.0,14.0,46,0.00,,,0.00,0.000000,,2013-10-08 03:55:00,
2013-10-07 22:04:00,49.0,29.0,-100.00,NNE,23,5.0,14.0,46,0.00,,,0.00,0.000000,,2013-10-08 04:04:00,
2013-10-07 22:14:00,49.0,29.0,-100.00,NNE,23,5.0,14.0,46,0.00,,,0.00,0.000000,,2013-10-08 04:14:00,
2013-10-07 22:43:00,45.0,30.0,-100.00,NW,312,3.0,9.0,56,0.00,,,0.00,0.000000,,2013-10-08 04:43:00,
2013-10-07 22:53:00,45.0,30.0,-100.00,NW,312,3.0,9.0,56,0.00,,,0.00,0.000000,,2013-10-08 04:53:00,
2013-10-07 23:03:00,45.0,30.0,-100.00,NW,312,3.0,9.0,56,0.00,,,0.00,0.000000,,2013-10-08 05:03:00,
2013-10-07 23:13:00,45.0,30.0,-100.00,NW,312,3.0,9.0,56,0.00,,,0.00,0.000000,,2013-10-08 05:13:00,
2013-10-07 23:42:00,45.0,29.0,-100.00,NW,323,3.0,6.0,54,0.00,,,0.00,0.000000,,2013-10-08 05:42:00,
2013-10-07 23:53:00,45.0,29.0,-100.00,NW,323,3.0,6.0,54,0.00,,,0.00,0.000000,,2013-10-08 05:53:00,